TimeEST,TemperatureF,Dew PointF,Humidity,Sea Level PressureIn,VisibilityMPH,Wind Direction,Wind SpeedMPH,Gust SpeedMPH,PrecipitationIn,Events,Conditions,WindDirDegrees,DateUTC
1:52 AM,32.0,21.0,64,30.11,10.0,NE,8.1,23.0,N/A,,Overcast,50,2013-03-07 06:52:00
2:07 AM,32.0,21.2,64,30.08,10.0,ENE,6.9,-,N/A,,Overcast,60,2013-03-07 07:07:00
2:50 AM,32.0,19.4,60,30.07,10.0,NE,8.1,-,N/A,,Overcast,50,2013-03-07 07:50:00
2:52 AM,32.0,19.9,61,30.09,10.0,East,6.9,-,N/A,,Overcast,80,2013-03-07 07:52:00
3:52 AM,32.0,19.9,61,30.08,10.0,Variable,6.9,19.6,N/A,,Overcast,0,2013-03-07 08:52:00
4:52 AM,32.0,19.0,59,30.09,10.0,Variable,3.5,-,N/A,,Overcast,0,2013-03-07 09:52:00
5:52 AM,32.0,19.0,59,30.11,10.0,Variable,6.9,-,N/A,,Overcast,0,2013-03-07 10:52:00
6:52 AM,32.0,18.0,56,30.11,10.0,Calm,Calm,-,N/A,,Overcast,0,2013-03-07 11:52:00
7:05 AM,32.0,17.6,55,30.08,10.0,ESE,4.6,-,N/A,,Overcast,120,2013-03-07 12:05:00
7:32 AM,30.2,19.4,64,30.09,1.8,ESE,3.5,-,0.00,Snow,Light Snow,120,2013-03-07 12:32:00
7:52 AM,30.0,21.9,72,30.12,3.0,Calm,Calm,-,0.00,Snow,Light Snow,0,2013-03-07 12:52:00
8:52 AM,30.9,23.0,72,30.11,10.0,Calm,Calm,-,0.00,,Overcast,0,2013-03-07 13:52:00
9:52 AM,33.1,21.9,64,30.11,10.0,NW,4.6,-,N/A,,Overcast,320,2013-03-07 14:52:00
10:52 AM,33.1,23.0,66,30.11,10.0,NW,5.8,-,N/A,,Overcast,320,2013-03-07 15:52:00
11:52 AM,34.0,24.1,67,30.11,10.0,Variable,4.6,-,N/A,,Overcast,0,2013-03-07 16:52:00
12:09 PM,33.8,24.8,70,30.08,10.0,NW,5.8,-,N/A,,Overcast,310,2013-03-07 17:09:00
12:43 PM,33.8,24.8,70,30.07,5.0,Variable,4.6,-,0.00,Snow,Light Snow,0,2013-03-07 17:43:00
12:52 PM,34.0,25.0,70,30.09,5.0,NW,8.1,-,0.00,Snow,Light Snow,310,2013-03-07 17:52:00
1:37 PM,33.8,24.8,70,30.07,2.5,Variable,6.9,-,0.00,Snow,Light Snow,0,2013-03-07 18:37:00
1:52 PM,34.0,25.0,70,30.09,2.5,NW,9.2,-,0.00,Snow,Light Snow,310,2013-03-07 18:52:00
2:19 PM,33.8,26.6,75,30.07,1.8,WNW,6.9,-,0.00,Snow,Light Snow,300,2013-03-07 19:19:00
2:28 PM,33.8,26.6,75,30.07,1.0,WNW,6.9,-,0.00,Snow,Light Snow,290,2013-03-07 19:28:00
2:52 PM,33.1,26.1,75,30.10,1.2,Variable,5.8,-,0.00,Snow,Light Snow,0,2013-03-07 19:52:00
3:52 PM,32.0,26.1,79,30.11,1.0,Variable,5.8,-,0.01,Snow,Light Snow,0,2013-03-07 20:52:00
4:24 PM,32.0,26.6,80,30.09,0.8,Variable,5.8,-,0.01,Snow,Light Snow,0,2013-03-07 21:24:00
4:31 PM,30.2,26.6,86,30.09,0.5,WNW,5.8,-,0.01,Snow,Snow,300,2013-03-07 21:31:00
4:52 PM,30.9,26.1,82,30.12,0.5,WNW,5.8,-,0.02,Snow,Snow,290,2013-03-07 21:52:00
5:15 PM,30.2,24.8,80,30.10,1.0,West,5.8,-,0.01,Snow,Light Snow,280,2013-03-07 22:15:00
5:25 PM,30.2,24.8,80,30.10,0.8,West,8.1,-,0.01,Snow,Light Snow,280,2013-03-07 22:25:00
5:52 PM,30.0,25.0,82,30.13,1.0,West,8.1,-,0.02,Snow,Light Snow,280,2013-03-07 22:52:00
6:23 PM,30.2,24.8,80,30.11,1.2,West,8.1,-,0.00,Snow,Light Snow,280,2013-03-07 23:23:00
6:52 PM,30.0,25.0,82,30.14,1.2,West,6.9,-,0.01,Snow,Light Snow,270,2013-03-07 23:52:00
7:49 PM,28.4,24.8,86,30.10,1.5,West,6.9,-,0.01,Snow,Light Snow,270,2013-03-08 00:49:00
7:52 PM,28.9,25.0,85,30.13,1.5,West,6.9,-,0.01,Snow,Light Snow,270,2013-03-08 00:52:00
8:07 PM,28.4,24.8,86,30.10,1.0,West,8.1,-,0.01,Snow,Light Snow,280,2013-03-08 01:07:00
8:17 PM,28.4,24.8,86,30.10,0.8,West,5.8,-,0.01,Snow,Light Snow,270,2013-03-08 01:17:00
8:31 PM,28.4,24.8,86,30.10,1.0,SW,6.9,-,0.02,Snow,Light Snow,230,2013-03-08 01:31:00
8:52 PM,28.9,24.1,82,30.13,1.5,WSW,6.9,-,0.02,Snow,Light Snow,240,2013-03-08 01:52:00
9:01 PM,28.4,24.8,86,30.10,2.5,West,6.9,-,0.00,Snow,Light Snow,260,2013-03-08 02:01:00
9:17 PM,28.4,24.8,86,30.09,1.8,West,6.9,-,0.00,Snow,Light Snow,260,2013-03-08 02:17:00
9:49 PM,28.4,24.8,86,30.09,1.5,WSW,6.9,-,0.01,Snow,Light Snow,250,2013-03-08 02:49:00
9:52 PM,28.9,24.1,82,30.12,1.5,WSW,5.8,-,0.01,Snow,Light Snow,240,2013-03-08 02:52:00
10:11 PM,28.4,24.8,86,30.08,2.0,West,4.6,-,0.00,Snow,Light Snow,270,2013-03-08 03:11:00
10:27 PM,28.4,24.8,86,30.07,1.2,WSW,4.6,-,0.01,Snow,Light Snow,240,2013-03-08 03:27:00
10:48 PM,28.4,23.0,80,30.07,1.5,WSW,5.8,-,0.01,Snow,Light Snow,240,2013-03-08 03:48:00
10:52 PM,28.9,23.0,78,30.10,1.5,WSW,5.8,-,0.01,Snow,Light Snow,240,2013-03-08 03:52:00
11:14 PM,28.4,23.0,80,30.07,1.2,SW,5.8,-,0.01,Snow,Light Snow,230,2013-03-08 04:14:00
11:33 PM,28.4,23.0,80,30.07,1.5,SW,6.9,-,0.01,Snow,Light Snow,230,2013-03-08 04:33:00
11:45 PM,28.4,23.0,80,30.06,2.5,West,5.8,-,0.01,Snow,Light Snow,260,2013-03-08 04:45:00
11:52 PM,28.0,23.0,81,30.09,2.0,WSW,5.8,-,0.01,Snow,Light Snow,250,2013-03-08 04:52:00
11:56 PM,28.4,23.0,80,30.06,1.2,WSW,6.9,-,0.00,Snow,Light Snow,250,2013-03-08 04:56:00